Weather History for Yellowstone, WY

Change the Weather History Date:

Friday, March 15, 2013

  Actual Average Record
Temperature  
Mean Temperature 37 °F 23 °F  
Max Temperature 48 °F 37 °F 48 °F (2013)
Min Temperature 26 °F 9 °F -6 °F (2002)
Degree Days  
Heating Degree Days 28 42  
Month to date heating degree days 644 665  
Since 1 July heating degree days 8511 8602  
Cooling Degree Days 0 0  
Month to date cooling degree days 0 0  
Year to date cooling degree days 0 0  
Moisture  
Dew Point 22 °F    
Average Humidity 56    
Maximum Humidity 85    
Minimum Humidity 26    
Precipitation  
Precipitation 0.00 in 0.04 in 0.27 in (2006)
Month to date precipitation 0.72 0.45  
Year to date precipitation 3.06 3.97  
Sea Level Pressure  
Sea Level Pressure 30.07 in    
Wind  
Wind Speed 3 mph (WNW)    
Max Wind Speed 17 mph    
Max Gust Speed 25 mph    
T = Trace of Precipitation, MM = Missing Value Source: NWS Daily Summary

Daily Weather History Graph

Daily Weather History Graph

Search for Another Location

Airport:

Trip Planner

Search our weather history database for the weather conditions in past years. The results will help you decide how hot, cold, wet, or windy it might be!

Date:

Astronomy

Mar. 15, 2013 Rise Set
Actual Time 7:33 AM MDT 7:28 PM MDT
Civil Twilight 7:04 AM MDT 7:57 PM MDT
Nautical Twilight 6:30 AM MDT 8:31 PM MDT
Astronomical Twilight 5:56 AM MDT 9:05 PM MDT
Moon 9:15 AM MDT (3/15) 11:57 PM MDT (3/15)
Length of Visible Light 12h 52m
Length of Day
11h 54m
Waxing Crescent, 16% of the Moon is Illuminated
Mar 15
Waxing Crescent
Mar 19
First Quarter
Mar 27
Full
Apr 2
Last Quarter
Apr 10
New

Hourly Weather History & Observations

Time (MDT) Temp. Windchill Dew Point Humidity Pressure Visibility Wind Dir Wind Speed Gust Speed Precip Events Conditions
12:56 AM 28.0 °F - 24.1 °F 85% 30.11 in - Calm Calm - N/A   Unknown
1:56 AM 28.0 °F - 24.1 °F 85% 30.12 in - Calm Calm - N/A   Unknown
2:56 AM 28.9 °F - 24.1 °F 82% 30.08 in - Calm Calm - N/A   Unknown
3:56 AM 28.9 °F - 24.1 °F 82% 30.07 in - Calm Calm - N/A   Unknown
4:56 AM 28.0 °F - 24.1 °F 85% 30.08 in - Calm Calm - N/A   Unknown
5:56 AM 28.0 °F - 25.0 °F 88% 30.09 in - Calm Calm - N/A   Unknown
6:56 AM 28.0 °F - 24.1 °F 85% 30.10 in - Calm Calm - N/A   Unknown
7:56 AM 27.0 °F - 23.0 °F 85% 30.14 in - Calm Calm - N/A   Unknown
8:56 AM 30.0 °F - 25.0 °F 82% 30.14 in - Calm Calm - N/A   Unknown
9:56 AM 37.0 °F - 25.0 °F 62% 30.10 in - Calm Calm - N/A   Unknown
10:56 AM 46.0 °F 43.1 °F 19.9 °F 35% 30.06 in - Variable 5.8 mph - N/A   Unknown
11:56 AM 45.0 °F 41.2 °F 17.1 °F 33% 30.07 in - Variable 6.9 mph 23.0 mph N/A   Unknown
12:56 PM 48.0 °F - 16.0 °F 28% 30.04 in - West 8.1 mph 20.7 mph N/A   Unknown
1:56 PM 46.0 °F 42.5 °F 15.1 °F 29% 30.04 in - Variable 6.9 mph 25.3 mph N/A   Unknown
2:56 PM 46.0 °F 42.5 °F 16.0 °F 30% 30.01 in - Variable 6.9 mph 17.3 mph N/A   Unknown
3:56 PM 45.0 °F 39.3 °F 16.0 °F 31% 30.02 in - WNW 11.5 mph 18.4 mph N/A   Unknown
4:56 PM 43.0 °F 40.3 °F 19.0 °F 38% 30.03 in - Variable 4.6 mph - N/A   Unknown
5:56 PM 39.0 °F 36.8 °F 23.0 °F 53% 30.05 in - Variable 3.5 mph - N/A   Unknown
6:56 PM 37.0 °F 33.3 °F 25.0 °F 62% 30.06 in - West 4.6 mph - N/A   Unknown
7:56 PM 35.1 °F 31.0 °F 27.0 °F 72% 30.09 in - West 4.6 mph - N/A   Unknown
8:56 PM 34.0 °F 29.8 °F 27.0 °F 75% 30.07 in - Variable 4.6 mph - N/A   Unknown
9:56 PM 30.9 °F - 26.1 °F 82% 30.04 in - Calm Calm - N/A   Unknown
10:56 PM 28.9 °F - 25.0 °F 85% 30.00 in - Calm Calm - N/A   Unknown
11:56 PM 27.0 °F - 24.1 °F 89% 30.01 in - Calm Calm - N/A   Unknown